Dewpoint
53 54 54 54 54 54 54 54 55 54 55 55 55 55 56 56 56 56 56 56 56 57 57 57 57 57 57 57 56 57 57 54 52 49 46 49 52 56 58 68 68 66 67 62 58 52 49 49 47 46 47 55 61 61 60 61 60 63 62 60 55 54 52 51 51 51 49 53 53 56 59 59 55 54 55 57 57 58 58 58 59 58 59 59 62 63 61 64
53 54 54 53 54 54 54 54 54 55 55 54 55 55 55 56 56 56 57 57 57 56 57 56 57 56 56 56 56 57 56 53 51 49 47 47 62 62 63 64 69 68 64 53 49 52 48 47 47 46 46 50 57 58 59 56 56 56 57 54 51 52 52 52 52 50 51 50 52 53 52 57 54 53 54 55 55 57 56 57 56 57 58 59 60 61 61 63
53 53 54 53 53 53 54 54 54 54 55 55 55 55 55 56 56 56 56 56 56 56 56 56 56 56 55 56 56 57 55 51 48 46 46 63 62 62 64 66 68 71 57 47 44 50 48 46 47 46 47 50 55 56 57 54 53 52 51 53 51 51 54 54 51 53 53 55 51 50 52 51 54 52 53 52 52 54 53 53 55 56 57 58 60 60 61 62
53 53 53 54 54 54 53 54 54 54 55 55 55 55 55 55 55 55 56 56 56 56 57 56 56 55 55 55 56 55 53 51 46 43 40 63 67 65 64 66 70 71 53 45 39 41 47 47 46 46 47 49 52 55 54 53 50 51 50 47 48 52 51 57 52 51 49 51 53 51 52 51 55 51 53 51 51 50 53 54 55 57 58 59 60 60 61 61
53 54 53 54 54 54 54 54 54 55 55 55 56 55 55 55 56 56 56 56 56 57 57 56 55 55 55 56 57 55 51 43 30 38 55 74 71 67 65 67 71 60 50 45 40 36 37 44 45 44 45 48 50 53 52 52 50 49 49 49 47 52 50 54 52 51 50 50 49 50 50 51 54 50 50 50 50 52 53 56 57 58 58 59 60 60 61 61
53 53 54 53 54 54 54 55 54 55 55 55 55 55 55 55 56 55 55 55 56 56 56 56 56 56 56 57 55 53 48 22 33 32 68 72 72 69 67 67 70 53 46 40 36 36 34 33 40 42 43 44 48 50 52 51 49 44 49 49 48 51 50 50 50 50 50 52 52 53 52 51 52 56 54 50 51 53 54 56 58 59 59 60 61 61 61 60
53 54 54 54 54 54 54 55 55 55 55 55 55 55 55 55 55 55 55 56 56 56 57 57 57 57 56 57 54 51 46 38 41 45 73 71 71 70 68 69 70 47 42 38 34 32 34 33 33 39 42 43 46 50 50 50 48 44 43 44 47 49 48 49 49 49 50 52 51 51 50 50 52 54 53 49 47 53 54 57 58 59 59 59 59 60 60 59
54 54 54 54 54 54 55 55 55 55 55 55 55 55 55 55 55 55 55 55 56 56 56 56 57 57 57 53 50 46 43 38 40 38 68 72 69 70 69 62 56 44 38 34 30 27 30 34 35 38 40 42 45 49 49 46 45 41 42 44 47 46 47 49 49 48 52 50 51 51 49 49 53 52 55 49 50 53 54 57 58 59 59 59 59 59 59 59
54 54 54 54 54 54 54 54 54 55 55 55 55 55 55 55 55 55 56 56 56 56 56 57 57 57 57 53 49 41 39 41 39 35 66 64 62 63 57 54 51 41 34 31 29 27 27 33 39 41 40 42 45 46 47 44 39 41 41 42 45 46 46 47 48 48 51 50 49 48 47 46 45 54 49 46 53 53 55 57 58 58 58 59 59 59 59 60
54 54 54 54 54 54 54 55 55 55 55 55 55 55 54 55 55 55 56 55 55 56 56 57 58 58 55 52 45 38 36 39 40 39 57 52 59 55 50 48 46 39 35 32 30 28 26 31 40 43 42 42 45 45 44 40 37 41 41 41 40 48 46 46 48 47 47 47 50 48 48 47 45 45 44 47 53 54 55 56 57 58 58 58 59 59 59 59
54 54 54 54 54 55 54 54 55 55 55 55 54 54 54 54 55 55 55 55 55 56 57 58 59 57 53 50 43 34 38 37 36 38 45 46 52 50 46 44 44 39 36 33 30 28 27 29 41 42 41 39 42 43 42 38 36 35 37 41 40 40 46 49 47 44 47 46 48 50 49 50 46 42 42 47 52 53 54 55 56 57 58 58 58 59 60 60
53 54 54 54 54 54 54 54 55 54 54 54 54 54 54 55 54 54 54 54 55 56 57 58 58 56 53 49 43 38 38 36 37 42 41 41 44 45 42 38 41 37 34 31 30 30 28 29 37 39 36 39 37 39 39 38 35 34 35 36 39 40 40 40 43 45 47 45 47 48 46 45 40 39 42 49 52 52 53 54 56 57 57 57 58 58 60 60
53 53 54 53 54 54 54 55 54 54 54 54 54 54 54 54 53 54 54 54 55 55 57 58 58 56 52 45 46 46 43 42 39 38 37 36 39 40 38 33 37 35 33 32 31 31 31 31 36 37 35 35 37 36 40 38 36 35 35 36 38 39 39 40 40 46 47 45 45 45 43 44 39 38 45 49 50 50 51 53 55 56 57 57 58 58 59 60
53 53 53 53 54 54 54 54 54 54 53 54 54 53 52 52 53 54 54 55 56 57 58 58 57 54 52 47 44 42 44 43 42 40 39 39 33 36 36 33 34 35 33 33 35 35 35 37 37 35 34 33 34 38 36 34 33 34 35 36 38 39 38 39 40 41 46 46 47 45 46 44 39 38 42 48 50 50 50 51 52 55 56 57 58 59 59 59
53 54 53 53 53 54 54 53 53 53 54 53 52 52 52 51 53 55 56 56 57 58 59 58 56 53 51 48 49 48 61 54 48 44 41 37 31 33 34 32 31 35 34 33 33 36 39 40 38 33 30 32 33 34 35 32 31 33 34 33 37 38 39 40 41 40 43 45 46 44 42 41 40 38 39 46 48 50 50 51 52 53 55 55 58 58 58 58
53 53 53 53 54 54 54 53 52 53 53 52 51 51 53 53 56 57 57 56 57 59 58 55 54 54 50 46 41 48 52 49 46 46 44 39 32 34 29 29 32 33 34 34 34 35 39 40 36 32 30 30 30 33 33 32 31 31 33 35 35 38 39 39 40 39 40 40 42 41 40 40 39 38 40 45 48 50 49 50 51 52 53 54 58 58 58 57
53 53 53 54 54 54 53 53 52 53 51 51 51 51 52 55 56 56 56 57 58 57 54 52 52 53 44 45 47 38 35 46 45 41 40 39 31 31 32 25 29 31 32 33 34 34 36 37 36 32 30 28 30 31 31 30 31 31 32 32 35 37 38 37 37 36 39 38 39 41 39 38 37 35 39 44 45 49 48 50 51 51 52 54 58 58 58 58
53 53 53 54 54 53 53 52 52 51 51 50 50 50 48 52 56 56 57 57 54 54 52 52 50 48 46 48 45 40 35 36 41 38 37 34 31 28 29 29 30 31 31 30 33 33 35 35 33 29 27 27 27 29 29 28 30 32 29 30 30 33 37 36 34 33 35 37 36 39 38 38 37 35 41 43 43 47 49 50 51 51 51 53 57 58 58 58
53 53 53 54 53 53 53 52 51 51 50 51 51 50 50 56 53 47 45 53 49 47 49 49 49 37 22 37 38 37 35 39 37 36 31 28 29 28 27 35 35 32 29 29 31 32 34 34 33 30 26 26 26 27 27 29 31 32 31 28 29 28 30 32 33 32 30 33 32 37 36 36 36 34 39 42 48 49 48 49 51 51 52 53 56 56 57 58
53 54 54 53 52 53 52 52 51 50 49 48 46 44 39 19 21 42 40 20 21 22 18 18 29 40 33 29 29 34 33 28 32 34 32 27 27 26 24 30 35 32 28 28 32 32 34 33 32 29 27 26 26 26 26 27 30 32 32 27 27 27 27 30 31 31 28 31 31 35 36 35 35 33 39 42 48 48 47 48 50 52 53 53 54 55 56 57
54 53 53 53 52 52 52 51 50 50 50 47 45 40 15 14 14 14 18 19 21 23 24 24 25 23 17 17 20 22 22 23 23 29 33 30 24 21 19 27 34 29 28 31 32 34 33 32 32 31 28 27 26 25 25 25 27 28 30 28 25 26 25 27 27 29 27 31 30 32 34 35 34 33 39 42 46 47 47 49 49 52 52 52 54 55 56 58
53 54 53 52 52 51 51 50 50 49 49 48 45 23 16 15 16 18 19 19 22 23 23 22 22 22 23 22 22 22 21 20 21 23 29 27 21 16 20 29 34 31 32 33 34 32 31 29 30 31 31 30 28 25 24 24 25 27 29 30 27 23 24 25 25 26 26 29 31 32 32 33 34 35 39 42 46 47 48 48 49 51 52 53 54 56 58 58
53 53 53 52 51 51 50 50 49 49 49 46 35 18 16 17 18 20 24 24 23 25 25 25 24 23 21 21 21 19 17 19 19 21 24 24 16 15 25 31 34 34 35 35 33 31 29 28 29 31 33 32 29 27 24 23 24 28 30 30 27 25 20 21 23 24 24 26 29 33 31 32 33 36 39 40 42 47 47 50 51 51 52 54 54 57 58 58
54 53 53 52 51 50 51 49 49 43 41 37 31 19 19 20 18 22 23 21 21 23 24 24 24 25 24 22 22 19 15 18 21 20 26 21 16 17 21 31 31 31 31 34 33 30 29 31 30 32 34 33 30 28 27 25 25 27 30 30 27 23 21 19 22 22 23 26 27 30 31 32 30 35 38 39 40 42 46 50 52 52 53 54 54 57 59 58
53 53 53 51 50 50 49 48 35 31 36 37 20 22 22 23 22 25 24 23 24 24 29 28 27 24 23 26 21 9 10 13 19 22 26 20 17 17 17 26 29 28 30 31 31 30 30 32 32 31 32 32 30 28 28 28 27 27 29 30 27 23 21 20 19 21 21 23 26 27 29 30 32 32 37 38 39 39 47 49 52 52 52 54 55 58 59 60
53 52 53 51 51 50 48 37 29 35 38 29 24 23 24 23 23 26 23 23 23 28 29 26 28 24 23 21 22 12 12 13 18 20 25 21 22 16 19 21 29 28 31 31 30 30 30 32 30 28 29 30 29 28 29 29 29 28 27 29 28 26 23 20 17 16 23 24 25 25 26 31 32 31 34 39 38 36 46 46 51 53 54 54 54 57 58 60
53 52 51 50 51 49 38 27 34 39 35 30 26 25 25 23 31 25 24 25 27 28 23 29 27 18 22 20 20 11 3 6 18 20 22 29 18 19 19 21 30 31 32 32 33 30 33 31 28 25 26 27 29 28 29 29 27 26 26 25 25 24 23 23 21 15 22 23 25 24 24 29 29 29 32 34 37 37 46 45 49 53 55 55 55 56 58 59
52 51 50 50 49 49 44 41 42 38 35 30 24 25 25 27 29 25 29 20 18 17 15 19 20 20 19 18 18 7 5 12 14 18 23 26 22 19 20 20 23 28 29 30 28 32 32 30 27 23 21 25 27 28 28 27 25 24 25 24 23 23 23 23 21 16 16 19 24 23 23 25 30 33 31 30 29 33 46 47 49 54 55 56 57 57 57 59
51 51 51 50 49 48 49 46 42 39 39 24 22 23 24 27 25 25 26 23 21 18 24 18 25 19 19 20 14 9 5 14 13 17 22 25 23 21 19 20 20 23 26 27 27 27 28 28 25 23 19 19 23 23 23 22 21 22 23 25 24 23 22 21 18 15 19 23 22 27 23 24 28 33 29 30 29 31 45 47 50 53 55 56 57 57 58 59
51 51 50 49 47 43 40 40 39 36 28 22 22 23 23 24 26 25 24 20 14 13 17 17 16 13 16 18 16 9 5 4 7 22 21 22 24 22 21 22 20 19 21 24 24 25 24 30 29 21 18 19 21 21 20 19 19 20 21 20 19 17 18 19 17 20 22 16 19 19 15 14 24 30 29 29 27 27 36 48 52 54 54 57 57 57 58 58
51 50 49 49 45 41 42 39 32 33 29 24 22 20 22 25 22 19 14 20 13 12 14 13 11 12 12 14 17 20 9 6 6 6 19 22 23 23 21 18 20 18 16 18 20 21 21 20 24 22 21 19 21 22 22 21 20 20 19 19 19 19 23 21 17 20 16 14 24 15 12 12 15 28 28 29 30 27 28 46 51 53 55 57 57 57 57 57
49 48 49 48 47 48 41 37 36 38 29 22 20 20 21 17 22 19 10 12 8 14 13 12 11 10 10 13 15 19 22 12 9 10 11 20 21 22 20 18 17 15 14 13 13 18 17 17 18 21 28 19 17 18 21 21 20 20 20 19 16 22 19 15 19 13 12 13 20 11 11 10 14 22 31 27 30 28 29 34 51 53 54 56 56 57 57 57
48 48 48 49 49 47 45 44 44 41 26 19 22 20 17 19 14 12 6 16 13 16 13 14 11 9 9 12 14 17 21 21 15 13 14 14 19 22 22 21 16 15 13 14 11 13 14 16 16 17 20 24 18 15 17 18 18 19 19 18 16 17 12 12 18 17 16 13 11 10 13 9 21 23 25 27 27 28 29 30 50 52 53 55 55 57 57 57
48 48 47 48 47 47 45 47 43 39 21 25 21 17 17 17 15 29 14 14 15 17 14 13 12 9 10 11 14 17 13 15 19 19 17 16 15 19 22 22 21 16 16 20 10 9 11 13 15 16 16 20 19 17 17 17 17 17 17 14 16 15 13 12 12 11 12 18 10 7 8 11 9 14 26 23 25 24 30 30 32 52 53 54 54 55 56 56
48 47 48 46 45 45 47 46 41 24 24 24 21 16 15 15 15 16 15 16 16 15 13 14 12 8 9 11 13 14 15 13 14 16 19 17 14 17 20 21 22 22 18 14 14 12 9 15 18 18 19 19 18 18 19 17 14 15 15 15 16 14 20 15 20 19 19 21 20 8 6 15 13 24 20 26 19 21 22 28 34 53 53 53 53 55 55 56
47 45 46 45 43 36 32 21 25 25 26 25 21 21 14 17 16 15 14 15 15 14 13 13 11 10 10 11 12 13 16 15 16 22 17 20 16 17 20 22 22 23 22 15 17 12 14 13 18 19 19 18 18 19 18 18 14 13 13 12 12 16 13 26 31 20 25 26 17 30 25 8 12 11 19 18 20 20 20 19 31 51 51 50 53 55 56 55
45 46 44 43 43 35 35 25 23 28 28 25 21 19 18 17 16 12 18 14 14 13 12 11 11 10 10 10 11 11 13 15 22 22 20 19 19 23 21 21 26 24 24 23 19 17 17 15 16 17 17 18 19 19 18 19 18 12 11 12 16 18 15 23 19 25 16 14 18 12 14 13 8 12 12 16 16 16 18 17 15 48 48 48 52 54 55 53
46 45 46 46 45 44 27 31 27 31 26 24 20 22 15 12 12 12 13 13 12 12 12 12 11 12 10 11 10 11 13 13 19 21 21 22 20 25 29 29 29 28 27 27 23 21 18 16 17 17 17 17 18 19 18 19 20 14 12 16 13 13 10 18 26 20 16 14 15 13 11 15 13 19 11 10 12 14 16 17 14 38 46 46 49 51 53 53
46 42 39 27 26 23 22 40 29 26 25 22 20 18 12 9 8 11 13 12 12 12 11 11 11 11 12 11 11 12 12 15 19 22 20 21 22 25 28 31 28 30 28 28 26 23 23 20 19 19 16 16 16 17 17 17 18 19 16 14 14 14 13 19 14 23 21 24 16 17 12 12 16 16 11 10 11 12 15 16 14 17 46 46 48 49 51 53
42 41 39 29 26 27 32 25 23 27 25 21 25 13 10 9 12 13 12 12 9 12 12 11 12 13 13 12 12 12 17 20 20 19 21 21 21 27 30 32 30 30 30 29 27 26 27 28 20 21 18 16 15 16 16 17 16 16 16 13 12 13 15 17 18 11 25 26 24 23 19 27 28 23 14 13 12 16 17 26 24 15 44 44 48 50 52 53
43 41 38 33 34 32 24 21 19 23 22 15 12 12 12 11 8 10 12 11 11 13 13 12 13 14 14 12 12 15 19 19 19 19 18 18 27 28 30 31 32 30 31 29 28 29 28 27 24 23 20 14 14 16 17 17 17 16 16 13 10 9 11 8 16 12 11 18 20 22 24 33 25 18 20 16 18 17 19 20 37 20 44 45 47 50 53 52
38 33 31 35 38 28 24 18 19 21 14 15 12 11 14 26 10 5 9 13 15 14 14 12 12 12 12 11 12 13 16 18 18 17 20 24 30 30 30 32 31 30 29 28 31 34 34 35 31 23 20 19 15 16 17 17 17 17 16 14 10 8 12 12 16 14 11 11 13 25 23 32 39 33 27 21 19 17 19 18 29 31 42 47 47 47 53 52
36 36 39 41 34 28 23 20 24 22 16 16 17 17 19 17 13 14 8 15 15 13 12 12 11 11 12 13 14 14 15 16 20 19 26 27 31 31 32 31 30 29 29 28 34 35 48 34 31 27 26 24 21 16 17 18 17 17 16 15 12 8 8 13 18 24 14 16 13 16 26 30 34 36 37 25 23 21 22 19 27 28 44 47 47 47 53 54
38 39 39 40 31 30 24 20 20 19 17 14 17 17 19 16 14 12 16 17 14 12 14 14 12 12 13 14 15 15 16 18 22 24 31 33 31 33 32 30 30 28 28 28 34 36 33 32 35 35 31 26 23 27 17 18 19 18 16 15 14 12 10 12 16 29 17 15 13 19 16 27 35 43 32 27 24 20 22 21 27 25 43 47 47 48 51 54
39 36 36 34 35 32 27 28 23 19 19 19 17 16 19 19 17 14 16 16 15 14 16 15 16 18 16 17 16 16 19 21 25 27 33 34 33 34 31 30 30 28 28 30 44 33 31 33 34 33 30 24 24 24 24 17 17 18 18 15 14 12 12 12 11 28 17 32 22 20 22 30 35 40 35 27 26 26 23 22 28 23 34 47 48 49 49 53
32 33 35 35 35 32 32 32 29 27 24 22 21 18 19 20 22 21 17 17 18 18 16 15 17 19 20 21 19 17 19 21 24 27 36 36 33 32 31 30 29 28 35 42 40 32 29 31 32 34 34 33 36 40 40 30 18 16 16 16 13 12 10 16 21 28 19 37 25 30 35 34 33 26 33 28 27 28 32 23 30 30 24 40 49 50 49 52
35 34 34 35 35 32 32 31 30 30 28 26 23 22 22 23 22 19 19 19 20 18 17 17 18 20 21 20 19 18 19 20 23 26 30 30 31 31 31 31 30 32 41 37 37 29 31 31 31 37 36 34 33 34 32 32 16 16 15 15 14 11 11 13 14 17 36 31 23 36 42 31 33 33 37 34 25 34 35 26 45 51 54 56 49 51 58 50
32 34 35 38 34 32 32 31 32 31 30 26 26 26 24 22 21 21 21 20 18 19 18 28 20 22 22 18 18 18 20 20 23 24 31 31 31 32 31 31 29 34 36 29 31 27 26 27 30 29 28 29 30 30 32 31 29 21 15 15 15 12 11 9 22 25 32 30 27 40 39 35 34 29 32 42 36 36 28 42 49 49 50 53 52 50 50 49
37 37 35 37 34 35 35 35 34 32 28 27 28 26 26 26 24 23 22 20 20 20 25 22 20 21 21 22 22 22 25 21 24 29 30 32 30 31 31 30 29 30 28 28 28 29 26 26 28 26 27 29 29 30 30 29 28 28 30 19 16 14 10 9 13 21 24 35 37 46 41 36 29 28 29 27 34 32 38 45 44 46 48 50 50 49 48 50
37 38 37 39 38 36 35 34 32 32 32 35 27 27 27 26 26 26 27 28 22 19 24 22 22 23 22 22 24 21 23 25 28 27 29 30 29 32 32 30 30 30 28 27 27 28 26 26 31 25 29 30 29 31 29 28 28 27 29 28 26 20 12 9 9 12 30 22 20 39 44 38 36 29 34 42 39 34 36 36 36 40 43 45 45 46 52 58
40 41 43 39 35 34 36 35 33 33 32 31 27 28 28 27 26 27 26 26 26 23 25 22 22 22 22 23 22 23 24 26 26 24 25 24 25 27 31 30 29 27 27 26 27 27 26 25 24 25 28 29 29 35 29 29 29 27 33 29 28 27 26 10 10 10 22 32 24 31 35 36 32 35 39 38 36 39 42 42 37 36 36 38 40 51 53 56
41 41 42 43 35 37 34 34 34 34 31 32 33 33 33 30 31 28 29 28 27 29 26 26 24 23 24 24 23 24 25 24 23 22 22 23 21 24 27 28 27 26 26 25 27 26 25 24 23 23 26 29 29 31 34 34 31 31 32 29 35 31 29 21 10 16 17 28 21 33 33 39 38 38 35 36 37 39 39 41 42 43 46 45 43 50 49 53